Search your local weather  

 
Advertise Here

Hazardous Weather Conditions

No active alerts for SAN ANTONIO, TEXAS

Current Conditions: SAN ANTONIO, TEXAS

Partly Cloudy


82.0 F

Last Updated on Apr 21 2019, 5:55 pm CDT
Humidity: 49%
Wind Speed: SE 13.8 G 18.4 mph
Barometer 29.93 in
Dewpoint: 60.3 F
Visibility: 10.00 mi
Precip: --
Heat Index: 83 F
Wind Chill: NA
Current conditions at:

Castroville Municipal Airport, TX (KCVB)

Lat: 29.34 Lon: -98.850

Local Radar Image active severe weather and emergency alerts image image weather storm and storm spotter reports image weather observation monitoring service image
Local
Radar
Active
Alerts
Storm Reports Weather
Monitoring

Weather Alert Notification Services


ialert severe weather and emergency alerts by text message and email ialert daily weather forecast by email and text message service ialert real-time weather-observation monitoring and alert notification service ialert storm report monitoring alert notification

Observation History for SAN ANTONIO, TEXAS


Time Wind
(mph)
Vis
(mi)
Weather Precip (in) Temperature (F) Relative
Humidity
Wind
Chill
(°F)
Heat
Index
(°F)
Pressure
Air Dwpt altimeter
(in)
sea level
(mb)
5:55 pm CDT SE 13.8 G 18.4 10.00 Partly Cloudy -- 82.0 60.3 49% NA 83 29.93 M
4:55 pm CDT SE 12.7 G 19.6 10.00 Partly Cloudy -- 84.0 59.7 44% NA 84 29.93 M
3:55 pm CDT SE 17.3 G 21.9 10.00 Partly Cloudy -- 84.0 57.6 40% NA 83 29.93 M
2:55 pm CDT S 16.1 G 19.6 10.00 Partly Cloudy -- 83.0 58.1 43% NA 83 29.95 M
2:35 pm CDT S 18.4 G 25.3 10.00 Partly Cloudy -- 83.0 58.1 42% NA 83 29.96 M
1:55 pm CDT S 15.0 G 20.7 10.00 Fair -- 82.0 57.9 44% NA 82 29.97 M
12:55 pm CDT S 15.0 10.00 Fair -- 79.0 58.8 50% NA NA 30.00 M
12:35 pm CDT S 15.0 10.00 Fair -- 79.0 58.6 50% NA NA 30.00 M
11:55 am CDT S 17.3 10.00 Mostly Cloudy -- 75.0 59.0 57% NA NA 30.01 M
10:55 am CDT S 17.3 G 23.0 10.00 Overcast -- 72.0 59.4 65% NA NA 30.02 M
10:35 am CDT S 16.1 G 21.9 10.00 Overcast -- 70.0 60.6 72% NA NA 30.01 M
9:55 am CDT S 11.5 G 18.4 10.00 Overcast -- 67.0 62.6 87% NA NA 30.01 M
9:35 am CDT S 12.7 G 18.4 10.00 Overcast -- 66.0 62.4 88% NA NA 30.00 M
8:55 am CDT SE 5.8 10.00 Overcast -- 63.0 61.9 96% 63 NA 30.00 M
7:55 am CDT E 4.6 10.00 Overcast -- 62.0 61.2 98% 62 NA 29.99 M
6:55 am CDT N 0.0 10.00 Overcast -- 59.0 59.2 99% NA NA 29.98 M
6:35 am CDT N 0.0 10.00 Overcast -- 58.0 57.4 99% NA NA 29.98 M
5:55 am CDT N 0.0 10.00 Partly Cloudy -- 55.0 53.8 97% NA NA 29.97 M
4:55 am CDT N 0.0 10.00 Fair -- 57.0 56.3 97% NA NA 29.97 M
3:55 am CDT N 0.0 10.00 Fair -- 58.0 56.5 94% NA NA 29.97 M
3:35 am CDT N 0.0 10.00 Fair -- 58.0 56.5 93% NA NA 29.97 M
2:55 am CDT N 0.0 10.00 Fair -- 60.0 53.8 81% NA NA 29.98 M
1:55 am CDT SE 3.5 10.00 Fair -- 61.0 52.9 74% NA NA 29.99 M
1:35 am CDT SE 3.5 10.00 Fair -- 62.0 52.7 72% NA NA 29.99 M

Regional Weather Observation

San Antonio, San Antonio International Airport, TX (KSAT)

Mostly Cloudy
80.0 F

Kelly Air Force Base, TX (KSKF)

Light Rain
81.0 F

San Antonio, Stinson Municipal Airport, TX (KSSF)

Partly Cloudy
82.0 F

Randolph Air Force Base, TX (KRND)

Fair
80.0 F

New Braunfels Regional Airport, TX (KBAZ)

Fair
80.0 F

Kerrville, Kerrville Municipal Airport/Louis Schreiner Field, TX (KERV)

Partly Cloudy
79.0 F
Advertise Here

Advertise Here